User: anonymous   Login
Location: Rancho Del Sol Observatory
(38.7214°N, 120.6350°W)
Time: 01:27:42
(UTC-07:00)
Language:

Cosmos 2221 Rocket - Orbit

View from above orbital plane
View from above orbital plane
View from above satellite
View from above satellite

Ground track
Ground track

The orbit data is extracted from the following two-line orbital elements,

1 22237U 92080B   15089.37189191  .00000470  00000-0  61749-4 0  9999
2 22237 082.5130 150.9504 0019085 337.5290 087.9667 14.78095770203807
Epoch (UTC): 30 March 2015 08:55:31
Eccentricity: 0.0019085
inclination: 82.5130°
perigee height: 622 km
apogee height: 649 km
right ascension of ascending node: 150.9504°
argument of perigee: 337.5290°
revolutions per day: 14.78095770
mean anomaly at epoch: 87.9667°
orbit number at epoch: 20380

The dashed part of the orbit path shows where the satellite is in the earth's shadow,  

DLR